Location: Unspecified
(0.0000°N, 0.0000°E)
Time: 18:47:23
(UTC+00:00)

Vanguard 2 Rocket - Pass Details

Date: 20 November 2019
Orbit: 554 x 3326 km, 32.9° (Epoch: 05 December)

Event Time Altitude Azimuth Distance (km) Brightness Sun altitude
Rises 12:56:31 0° 252° (WSW) 7,037 11.7 63.7°
Reaches altitude 10° 13:03:31 10° 236° (WSW) 6,230 11.7 62.6°
Maximum altitude 13:16:39 20° 196° (SSW) 5,351 11.6 60.2°
Drops below altitude 10° 13:28:45 10° 154° (SSE) 5,668 11.2 58.0°
Sets 13:34:43 0° 138° (SE) 6,251 11.2 56.8°
